OCN4EK EDDF-LDSP

Flight info

Callsign OCN4EK
Flight time 1h 27m
Altitude 37000
Route CINDY8S/18 CINDY Z74 LAMPU DCT NOMBO Y161 MAH DCT VAVOR DCT RADIZ/N0433F350 DCT GIMIX/N0433F370 DCT ALIVO DCT NUPSO
Aircraft A320/M-SDE3FGHIRWY/LB1

Departure

Time 2026-05-04 07:05
Airport Frankfurt Main Airport (EDDF)

Arrival

Time 2026-05-04 08:33
Airport Split Saint Jerome Airport (LDSP)
Time Latitude Longitude Altitude Speed Heading
2026-05-04 06:44 50.04917 8.57089 356 ft 0 kts 97°
2026-05-04 06:58 50.04910 8.57092 361 ft 4 kts 160°
2026-05-04 06:58 50.04872 8.57088 356 ft 8 kts 193°
2026-05-04 06:59 50.04816 8.57052 362 ft 10 kts 205°
2026-05-04 06:59 50.04750 8.57005 358 ft 11 kts 204°
2026-05-04 06:59 50.04674 8.56951 359 ft 13 kts 204°
2026-05-04 06:59 50.04586 8.56900 362 ft 14 kts 196°
2026-05-04 07:01 50.04362 8.57259 363 ft 15 kts 69°
2026-05-04 07:01 50.04396 8.57397 364 ft 13 kts 69°
2026-05-04 07:02 50.04425 8.57518 361 ft 11 kts 71°
2026-05-04 07:02 50.04422 8.57605 366 ft 5 kts 114°
2026-05-04 07:02 50.04404 8.57640 366 ft 4 kts 135°
2026-05-04 07:02 50.04346 8.57688 362 ft 13 kts 156°
2026-05-04 07:03 50.04265 8.57659 364 ft 13 kts 235°
2026-05-04 07:03 50.04259 8.57636 364 ft 0 kts 248°
2026-05-04 07:04 50.04258 8.57636 364 ft 1 kts 248°
2026-05-04 07:04 50.04184 8.57338 369 ft 72 kts 250°
2026-05-04 07:05 50.03912 8.56205 354 ft 148 kts 249°
2026-05-04 07:05 50.03528 8.54563 964 ft 163 kts 250°
2026-05-04 07:05 50.03150 8.52890 1920 ft 167 kts 249°
2026-05-04 07:05 50.02658 8.51156 2551 ft 183 kts 233°
2026-05-04 07:06 50.00185 8.49255 3384 ft 212 kts 198°
2026-05-04 07:06 49.98707 8.49182 4135 ft 219 kts 165°
2026-05-04 07:06 49.97438 8.50516 4905 ft 229 kts 128°
2026-05-04 07:07 49.96601 8.52654 5670 ft 233 kts 122°
2026-05-04 07:08 49.89982 8.71130 10369 ft 312 kts 122°
2026-05-04 07:09 49.89264 8.73127 10544 ft 328 kts 122°
2026-05-04 07:09 49.87752 8.77350 11198 ft 344 kts 122°
2026-05-04 07:09 49.86584 8.80615 11938 ft 348 kts 121°
2026-05-04 07:09 49.85786 8.82836 12447 ft 351 kts 122°
2026-05-04 07:10 49.84197 8.87226 13465 ft 354 kts 122°
2026-05-04 07:10 49.83379 8.89481 13963 ft 356 kts 122°
2026-05-04 07:12 49.75409 9.14093 18420 ft 383 kts 109°
2026-05-04 07:12 49.74476 9.17958 18926 ft 382 kts 120°
2026-05-04 07:12 49.73102 9.21470 19438 ft 382 kts 130°
2026-05-04 07:12 49.71387 9.24609 19957 ft 384 kts 135°
2026-05-04 07:13 49.69616 9.27721 20441 ft 388 kts 135°
2026-05-04 07:13 49.67829 9.30860 20942 ft 392 kts 135°
2026-05-04 07:13 49.66026 9.34032 21425 ft 395 kts 135°
2026-05-04 07:14 49.57729 9.45224 23244 ft 401 kts 154°
2026-05-04 07:14 49.55324 9.47409 23677 ft 404 kts 153°
2026-05-04 07:15 49.52884 9.49624 24059 ft 407 kts 153°
2026-05-04 07:15 49.50436 9.51850 24456 ft 410 kts 153°
2026-05-04 07:15 49.47978 9.54090 24860 ft 412 kts 153°
2026-05-04 07:15 49.45506 9.56347 25259 ft 414 kts 153°
2026-05-04 07:16 49.43020 9.58617 25648 ft 416 kts 153°
2026-05-04 07:16 49.40523 9.60890 26035 ft 418 kts 153°
2026-05-04 07:16 49.38012 9.63170 26420 ft 420 kts 154°
2026-05-04 07:16 49.35489 9.65468 26794 ft 423 kts 152°
2026-05-04 07:17 49.33117 9.68198 27151 ft 431 kts 142°
2026-05-04 07:17 49.30974 9.71435 27529 ft 434 kts 139°
2026-05-04 07:17 49.28841 9.74722 27903 ft 436 kts 139°
2026-05-04 07:17 49.26690 9.78017 28272 ft 438 kts 139°
2026-05-04 07:18 49.24526 9.81312 28614 ft 441 kts 139°
2026-05-04 07:18 49.22341 9.84625 28920 ft 444 kts 139°
2026-05-04 07:18 49.20144 9.87954 29250 ft 446 kts 139°
2026-05-04 07:18 49.17929 9.91310 29577 ft 449 kts 139°
2026-05-04 07:19 49.15707 9.94672 29894 ft 451 kts 139°
2026-05-04 07:19 49.13472 9.98053 30190 ft 453 kts 139°
2026-05-04 07:19 49.11232 10.01445 30449 ft 455 kts 139°
2026-05-04 07:19 49.08983 10.04846 30715 ft 456 kts 139°
2026-05-04 07:20 49.06720 10.08261 30967 ft 458 kts 139°
2026-05-04 07:20 49.04437 10.11653 31233 ft 459 kts 140°
2026-05-04 07:20 49.02111 10.14994 31531 ft 459 kts 141°
2026-05-04 07:20 48.99768 10.18283 31887 ft 458 kts 141°
2026-05-04 07:22 48.83449 10.41149 34264 ft 455 kts 141°
2026-05-04 07:22 48.81140 10.44525 34564 ft 455 kts 139°
2026-05-04 07:23 48.78945 10.47944 34854 ft 455 kts 137°
2026-05-04 07:23 48.76774 10.51469 35133 ft 455 kts 136°
2026-05-04 07:23 48.74666 10.54953 35370 ft 455 kts 136°
2026-05-04 07:23 48.72527 10.58482 35618 ft 455 kts 136°
2026-05-04 07:24 48.70377 10.61988 35877 ft 454 kts 136°
2026-05-04 07:24 48.68221 10.65452 36142 ft 453 kts 137°
2026-05-04 07:24 48.66047 10.68907 36401 ft 452 kts 137°
2026-05-04 07:24 48.63875 10.72336 36655 ft 451 kts 137°
2026-05-04 07:25 48.61707 10.75753 36897 ft 450 kts 137°
2026-05-04 07:26 48.46694 10.99665 37057 ft 448 kts 137°
2026-05-04 07:27 48.42365 11.06401 37056 ft 448 kts 137°
2026-05-04 07:27 48.38021 11.13115 37056 ft 448 kts 137°
2026-05-04 07:28 48.33687 11.19836 37056 ft 448 kts 137°
2026-05-04 07:28 48.29344 11.26544 37043 ft 448 kts 137°
2026-05-04 07:29 48.25360 11.33749 37045 ft 453 kts 123°
2026-05-04 07:29 48.22211 11.41946 37045 ft 454 kts 123°
2026-05-04 07:30 48.19042 11.50131 37048 ft 454 kts 123°
2026-05-04 07:30 48.15853 11.58298 37050 ft 454 kts 123°
2026-05-04 07:31 48.12669 11.66468 37046 ft 454 kts 123°
2026-05-04 07:33 48.00076 11.98630 37042 ft 453 kts 123°
2026-05-04 07:33 47.96872 12.06734 37054 ft 453 kts 123°
2026-05-04 07:34 47.93486 12.14638 37064 ft 450 kts 132°
2026-05-04 07:34 47.88997 12.21004 37064 ft 445 kts 143°
2026-05-04 07:35 47.84259 12.26937 37066 ft 445 kts 143°
2026-05-04 07:35 47.79555 12.32826 37065 ft 445 kts 143°
2026-05-04 07:36 47.74811 12.38748 37073 ft 445 kts 143°
2026-05-04 07:38 47.55582 12.61759 37073 ft 443 kts 147°
2026-05-04 07:38 47.50562 12.67060 37056 ft 443 kts 147°
2026-05-04 07:39 47.45571 12.72393 37058 ft 443 kts 146°
2026-05-04 07:39 47.40610 12.77780 37075 ft 443 kts 146°
2026-05-04 07:40 47.35654 12.83170 37069 ft 442 kts 146°
2026-05-04 07:40 47.30689 12.88532 37080 ft 442 kts 146°
2026-05-04 07:41 47.25718 12.93874 37066 ft 442 kts 146°
2026-05-04 07:41 47.20779 12.99169 37078 ft 442 kts 147°
2026-05-04 07:42 47.15804 13.04491 37088 ft 443 kts 146°
2026-05-04 07:42 47.10827 13.09815 37094 ft 443 kts 146°
2026-05-04 07:43 47.05850 13.15130 37101 ft 442 kts 146°
2026-05-04 07:43 47.00870 13.20424 37101 ft 443 kts 146°
2026-05-04 07:44 46.95875 13.25710 37101 ft 443 kts 147°
2026-05-04 07:44 46.90880 13.30998 37108 ft 443 kts 147°
2026-05-04 07:45 46.85878 13.36271 37109 ft 443 kts 147°
2026-05-04 07:45 46.80873 13.41539 37115 ft 443 kts 147°
2026-05-04 07:46 46.75872 13.46802 37108 ft 444 kts 146°
2026-05-04 07:46 46.70860 13.52059 37105 ft 444 kts 146°
2026-05-04 07:47 46.65841 13.57314 37093 ft 445 kts 147°
2026-05-04 07:49 46.45673 13.78313 37115 ft 446 kts 146°
2026-05-04 07:49 46.40680 13.83557 37104 ft 446 kts 146°
2026-05-04 07:50 46.35633 13.88825 37110 ft 447 kts 146°
2026-05-04 07:50 46.30573 13.94076 37111 ft 448 kts 146°
2026-05-04 07:51 46.25511 13.99334 37116 ft 448 kts 146°
2026-05-04 07:51 46.20448 14.04587 37117 ft 448 kts 146°
2026-05-04 07:52 46.15367 14.09827 37121 ft 449 kts 146°
2026-05-04 07:52 46.10280 14.15062 37119 ft 450 kts 146°
2026-05-04 07:54 45.90701 14.35127 37121 ft 451 kts 146°
2026-05-04 07:55 45.84705 14.41220 37110 ft 453 kts 146°
2026-05-04 07:55 45.79561 14.46448 37107 ft 454 kts 146°
2026-05-04 07:56 45.74410 14.51676 37109 ft 454 kts 147°
2026-05-04 07:56 45.70120 14.56010 37111 ft 454 kts 147°
2026-05-04 07:57 45.64957 14.61210 37114 ft 454 kts 147°
2026-05-04 07:57 45.59789 14.66423 37102 ft 455 kts 147°
2026-05-04 07:58 45.54611 14.71631 37103 ft 456 kts 147°
2026-05-04 07:58 45.49265 14.76455 37105 ft 455 kts 152°
2026-05-04 07:59 45.43779 14.80953 37108 ft 455 kts 152°
2026-05-04 07:59 45.38284 14.85451 37106 ft 456 kts 152°
2026-05-04 08:00 45.32788 14.89946 37112 ft 456 kts 152°
2026-05-04 08:02 45.10759 15.07883 37107 ft 458 kts 153°
2026-05-04 08:02 45.05224 15.12359 37104 ft 459 kts 153°
2026-05-04 08:03 44.99670 15.16842 36554 ft 463 kts 153°
2026-05-04 08:03 44.96829 15.19132 35360 ft 476 kts 153°
2026-05-04 08:03 44.93932 15.21462 34468 ft 480 kts 153°
2026-05-04 08:04 44.91032 15.23793 33602 ft 477 kts 153°
2026-05-04 08:04 44.88160 15.26097 32492 ft 472 kts 152°
2026-05-04 08:04 44.85324 15.28372 31494 ft 465 kts 152°
2026-05-04 08:04 44.82549 15.30599 30872 ft 451 kts 152°
2026-05-04 08:05 44.79871 15.32748 30336 ft 436 kts 152°
2026-05-04 08:05 44.77274 15.34831 29736 ft 423 kts 151°
2026-05-04 08:05 44.74763 15.36840 29249 ft 408 kts 151°
2026-05-04 08:05 44.72344 15.38774 28760 ft 394 kts 151°
2026-05-04 08:06 44.69997 15.40646 28317 ft 385 kts 152°
2026-05-04 08:06 44.67670 15.42497 27860 ft 383 kts 152°
2026-05-04 08:06 44.65359 15.44329 27412 ft 380 kts 151°
2026-05-04 08:06 44.63058 15.46154 26978 ft 379 kts 151°
2026-05-04 08:08 44.47297 15.58618 23925 ft 366 kts 150°
2026-05-04 08:08 44.45079 15.60374 23414 ft 366 kts 150°
2026-05-04 08:10 44.27717 15.74048 19785 ft 353 kts 150°
2026-05-04 08:11 44.25581 15.75721 19341 ft 352 kts 150°
2026-05-04 08:11 44.21318 15.79050 18461 ft 350 kts 150°
2026-05-04 08:11 44.19190 15.80705 17981 ft 349 kts 150°
2026-05-04 08:12 44.17079 15.82348 17548 ft 347 kts 150°
2026-05-04 08:12 44.14983 15.83983 17125 ft 344 kts 150°
2026-05-04 08:12 44.12897 15.85605 16688 ft 343 kts 150°
2026-05-04 08:12 44.10801 15.87168 16244 ft 341 kts 152°
2026-05-04 08:13 44.08693 15.88681 15807 ft 341 kts 152°
2026-05-04 08:13 44.06580 15.90169 15380 ft 340 kts 152°
2026-05-04 08:13 44.04474 15.91650 14943 ft 339 kts 152°
2026-05-04 08:13 44.02373 15.93136 14489 ft 339 kts 152°
2026-05-04 08:14 44.00278 15.94626 14069 ft 338 kts 152°
2026-05-04 08:14 43.98190 15.96113 13606 ft 337 kts 152°
2026-05-04 08:14 43.96112 15.97592 13161 ft 335 kts 152°
2026-05-04 08:16 43.81087 16.02768 10282 ft 320 kts 190°
2026-05-04 08:16 43.78938 16.02200 10160 ft 309 kts 189°
2026-05-04 08:16 43.76859 16.01663 9956 ft 301 kts 189°
2026-05-04 08:17 43.74813 16.01140 9615 ft 298 kts 189°
2026-05-04 08:17 43.72782 16.00622 9223 ft 297 kts 189°
2026-05-04 08:17 43.70783 16.00111 8838 ft 295 kts 190°
2026-05-04 08:17 43.68767 15.99593 8408 ft 295 kts 190°
2026-05-04 08:19 43.55101 15.96030 7195 ft 282 kts 192°
2026-05-04 08:19 43.53174 15.95531 7073 ft 281 kts 192°
2026-05-04 08:20 43.51249 15.95031 6949 ft 281 kts 192°
2026-05-04 08:20 43.49393 15.94228 6827 ft 279 kts 207°
2026-05-04 08:20 43.47756 15.92816 6695 ft 277 kts 221°
2026-05-04 08:20 43.46385 15.90964 6576 ft 276 kts 227°
2026-05-04 08:21 43.45049 15.89068 6451 ft 276 kts 227°
2026-05-04 08:21 43.43710 15.87183 6323 ft 275 kts 227°
2026-05-04 08:21 43.42371 15.85302 6197 ft 275 kts 227°
2026-05-04 08:21 43.41035 15.83427 6068 ft 275 kts 227°
2026-05-04 08:22 43.39699 15.81551 5938 ft 274 kts 227°
2026-05-04 08:22 43.38365 15.79677 5814 ft 274 kts 227°
2026-05-04 08:24 43.27750 15.74602 4944 ft 277 kts 134°
2026-05-04 08:24 43.26375 15.76466 4823 ft 279 kts 134°
2026-05-04 08:24 43.25156 15.78516 4684 ft 277 kts 115°
2026-05-04 08:24 43.24698 15.81032 4562 ft 272 kts 87°
2026-05-04 08:25 43.25105 15.83517 4435 ft 267 kts 61°
2026-05-04 08:25 43.26230 15.85516 4309 ft 265 kts 43°
2026-05-04 08:25 43.27522 15.87318 4184 ft 265 kts 43°
2026-05-04 08:25 43.28815 15.89118 4058 ft 265 kts 44°
2026-05-04 08:26 43.30107 15.90917 3934 ft 264 kts 43°
2026-05-04 08:27 43.38184 16.02117 3072 ft 219 kts 43°
2026-05-04 08:28 43.39229 16.03642 2953 ft 219 kts 50°
2026-05-04 08:28 43.40184 16.05277 2860 ft 219 kts 52°
2026-05-04 08:28 43.41115 16.06933 2821 ft 219 kts 52°
2026-05-04 08:28 43.42045 16.08593 2827 ft 219 kts 52°
2026-05-04 08:29 43.42975 16.10251 2827 ft 219 kts 52°
2026-05-04 08:29 43.43906 16.11912 2831 ft 219 kts 52°
2026-05-04 08:29 43.44838 16.13576 2730 ft 220 kts 52°
2026-05-04 08:31 43.50987 16.24568 904 ft 162 kts 53°
2026-05-04 08:33 43.54051 16.30138 61 ft 10 kts 155°
2026-05-04 08:33 43.54015 16.30110 59 ft 5 kts 208°
2026-05-04 08:35 43.53719 16.29743 66 ft 3 kts 170°
2026-05-04 08:35 43.53711 16.29764 65 ft 2 kts 116°
2026-05-04 08:35 43.53703 16.29786 63 ft 3 kts 116°
2026-05-04 08:35 43.53695 16.29809 65 ft 2 kts 114°
2026-05-04 08:37 43.53695 16.29810 65 ft 0 kts 114°